Regional Weather Roundup
Issued by NWS Albany, NY

Home | Current Version | Previous Version | Graphics & Text | Print | Product List | Glossary Off
Versions: 1 2 3 4 5 6 7 8 9 10 11 12 13 14 15 16 17 18 19 20 21 22 23 24 25 26 27

000
ASUS41 KALY 292010
RWRALY

NEW YORK STATE HOURLY WEATHER ROUNDUP
NATIONAL WEATHER SERVICE ALBANY NY
400 PM EDT MON AUG 29 2016

NOTE: "FAIR" INDICATES FEW OR NO CLOUDS BELOW 12,000 FEET WITH NO
SIGNIFICANT WEATHER AND/OR NO OBSTRUCTIONS TO VISIBILITY.

NYZ032-033-038>043-046>054-057>066-NYZ062>081-082-084-292100-
EAST


CITY           SKY/WX    TMP DP  RH WIND       PRES   REMARKS
ALBANY         MOSUNNY   82  55  39 NW12G22   30.11S
GLENS FALLS    SUNNY     82  54  37 NW14      30.12S
POUGHKEEPSIE   SUNNY     86  54  33 N12       30.07F
NEWBURGH       MOSUNNY   84  61  45 VRB6      30.11S
MONTGOMERY     SUNNY     87  59  38 NW12      30.09F
WHITE PLAINS   MOSUNNY   87  58  37 NW13      30.08S
ISLIP          MOSUNNY   90  60  36 NW12      30.05S
NEW YORK CITY  MOSUNNY   90  58  33 NW14      30.05F
CENTRAL PARK   SUNNY     90  57  32 VRB7      30.09F
$$

NYZ005>009-017-018-044>046-055-056-292100-
CENTRAL


CITY           SKY/WX    TMP DP  RH WIND       PRES   REMARKS
FULTON         SUNNY     76  58  53 N9        30.21F
SYRACUSE       MOSUNNY   77  57  50 N14       30.19F
ROME           MOSUNNY   79  57  46 N8        30.17F
ELMIRA         MOSUNNY   82  60  47 N12       30.18F
BINGHAMTON     PTSUNNY   77  59  53 N13G20    30.21F
MONTICELLO     MOSUNNY   79  59  50 NW13      30.18F
$$

NYZ026>034-041>043-087-292100-
NORTH


CITY           SKY/WX    TMP DP  RH WIND       PRES   REMARKS
WATERTOWN      MOSUNNY   80  52  37 NW12      30.18F
FORT DRUM      NOT AVBL
MASSENA        SUNNY     76  55  48 NW8       30.19F
SARANAC LAKE   MOSUNNY   71  52  50 MISG      30.21S
PLATTSBURGH    MOSUNNY   76  55  48 NW13G21   30.16S
$$

NYZ001>004-010>016-019>021-085-292100-
WEST


CITY           SKY/WX    TMP DP  RH WIND       PRES   REMARKS
NIAGARA FALLS  MOSUNNY   81  59  47 N7        30.22F
BUFFALO        MOSUNNY   80  59  48 N7        30.21F
DUNKIRK        SUNNY     78  63  59 NW8       30.23F
JAMESTOWN      SUNNY     75  57  53 N9        30.25F
WELLSVILLE     MOSUNNY   77  58  51 N6        30.27F
ROCHESTER      MOSUNNY   78  61  55 NE12      30.22F
PENN YAN       MOSUNNY   81  58  45 VRB7      30.21F
$$

             KEY
       WCI = WIND CHILL INDEX
       VSB = VISIBILITY
       HX  = HEAT INDEX
$$




USA.gov is the U.S. government's official web portal to all federal, state and local government web resources and services.